When you browse on this site, cookies collect data to enhance your experience and personalize the content and advertising you see.
Visit our Privacy Policy to learn more. By continuing to use the site, you agree to this use of cookies and data.
  • In Hungary
  • List of Countries
  • For 7 days
  • Water Temperature
  • Satellite Maps
  • Weather Map
  • News
  • Weather Widgets
  • user-avatar
    Login

    Hourly Weather Christchurch

    Today, 15 December, Saturday

    Time Temperature Precipitation Wind Pressure Humidity
    00:00 +14°C° 0 mm 1 mps 764 mmHg 95%
    01:00 +14°C° 0 mm 1 mps 764 mmHg 94%
    02:00 +14°C° 0 mm 1 mps 764 mmHg 94%
    03:00 +14°C° 0 mm 1 mps 764 mmHg 93%
    04:00 +14°C° 0 mm 1 mps 765 mmHg 91%
    05:00 +15°C° 0 mm 1 mps 765 mmHg 90%
    06:00 +16°C° 0 mm 2 mps 765 mmHg 87%
    07:00 +18°C° 0 mm 2 mps 765 mmHg 81%
    08:00 +19°C° 0 mm 2 mps 765 mmHg 76%
    09:00 +21°C° 0 mm 2 mps 766 mmHg 71%
    10:00 +23°C° 0.1 mm 2 mps 766 mmHg 69%
    11:00 +23°C° 0.1 mm 2 mps 766 mmHg 67%
    12:00 +22°C° 0 mm 3 mps 766 mmHg 72%
    13:00 +22°C° 0 mm 3 mps 766 mmHg 71%
    14:00 +24°C° 0 mm 3 mps 766 mmHg 70%
    15:00 +24°C° 0 mm 3 mps 766 mmHg 69%
    16:00 +22°C° 0 mm 3 mps 766 mmHg 73%
    17:00 +22°C° 0 mm 3 mps 766 mmHg 76%
    18:00 +19°C° 0 mm 2 mps 766 mmHg 81%
    19:00 +18°C° 0 mm 2 mps 766 mmHg 86%
    20:00 +17°C° 0 mm 2 mps 766 mmHg 90%
    21:00 +15°C° 0 mm 1 mps 767 mmHg 95%
    22:00 +15°C° 0 mm 1 mps 767 mmHg 95%
    23:00 +15°C° 0 mm 1 mps 767 mmHg 95%

    Tomorrow, 16 December, Sunday

    Time Temperature Precipitation Wind Pressure Humidity
    00:00 +15°C° 0 mm 1 mps 767 mmHg 95%
    01:00 +15°C° 0 mm 1 mps 767 mmHg 95%
    02:00 +15°C° 0 mm 1 mps 767 mmHg 95%
    03:00 +14°C° 0 mm 1 mps 767 mmHg 95%
    04:00 +15°C° 0 mm 1 mps 767 mmHg 94%
    05:00 +15°C° 0 mm 1 mps 768 mmHg 92%
    06:00 +15°C° 0 mm 0 mps 768 mmHg 91%
    07:00 +18°C° 0 mm 1 mps 768 mmHg 87%
    08:00 +19°C° 0 mm 1 mps 768 mmHg 82%
    09:00 +20°C° 0 mm 2 mps 768 mmHg 78%
    10:00 +20°C° 0 mm 2 mps 768 mmHg 77%
    11:00 +21°C° 0 mm 3 mps 768 mmHg 77%
    12:00 +21°C° 0 mm 3 mps 768 mmHg 76%
    13:00 +21°C° 0 mm 3 mps 768 mmHg 78%
    14:00 +20°C° 0 mm 3 mps 768 mmHg 79%
    15:00 +20°C° 0 mm 3 mps 768 mmHg 81%
    16:00 +19°C° 0 mm 4 mps 768 mmHg 82%
    17:00 +19°C° 0 mm 4 mps 767 mmHg 83%
    18:00 +19°C° 0 mm 4 mps 767 mmHg 84%
    19:00 +18°C° 0 mm 4 mps 767 mmHg 88%
    20:00 +15°C° 0 mm 4 mps 767 mmHg 92%
    21:00 +14°C° 0 mm 4 mps 767 mmHg 96%
    22:00 +14°C° 0 mm 4 mps 767 mmHg 94%
    23:00 +14°C° 0 mm 4 mps 767 mmHg 93%

    Day after tomorrow, 17 December, Monday

    Time Temperature Precipitation Wind Pressure Humidity
    00:00 +14°C° 0 mm 4 mps 767 mmHg 92%
    01:00 +14°C° 0 mm 4 mps 766 mmHg 89%
    02:00 +13°C° 0 mm 4 mps 766 mmHg 86%
    03:00 +13°C° 0 mm 3 mps 766 mmHg 84%
    04:00 +13°C° 0 mm 3 mps 766 mmHg 81%
    05:00 +14°C° 0 mm 2 mps 766 mmHg 79%
    06:00 +15°C° 0 mm 2 mps 766 mmHg 77%
    07:00 +17°C° 0 mm 2 mps 765 mmHg 68%
    08:00 +21°C° 0 mm 1 mps 765 mmHg 58%
    09:00 +24°C° 0 mm 1 mps 765 mmHg 49%
    10:00 +26°C° 0 mm 1 mps 764 mmHg 46%
    11:00 +27°C° 0 mm 2 mps 764 mmHg 43%
    12:00 +29°C° 0 mm 2 mps 763 mmHg 40%
    13:00 +29°C° 0 mm 3 mps 763 mmHg 40%
    14:00 +30°C° 0 mm 3 mps 762 mmHg 40%
    15:00 +30°C° 0 mm 4 mps 762 mmHg 41%
    16:00 +29°C° 0 mm 4 mps 761 mmHg 45%
    17:00 +28°C° 0 mm 4 mps 761 mmHg 49%
    18:00 +27°C° 0 mm 4 mps 760 mmHg 54%
    19:00 +25°C° 0 mm 4 mps 760 mmHg 55%
    20:00 +21°C° 0 mm 5 mps 761 mmHg 56%
    21:00 +19°C° 0 mm 5 mps 761 mmHg 57%
    22:00 +17°C° 0 mm 5 mps 760 mmHg 58%
    23:00 +16°C° 0 mm 5 mps 760 mmHg 60%

    18 December, Tuesday

    Time Temperature Precipitation Wind Pressure Humidity
    00:00 +16°C° 0 mm 5 mps 760 mmHg 61%
    01:00 +15°C° 0 mm 5 mps 760 mmHg 62%
    02:00 +15°C° 0 mm 4 mps 759 mmHg 64%
    03:00 +15°C° 0 mm 4 mps 759 mmHg 66%
    04:00 +15°C° 0 mm 4 mps 759 mmHg 68%
    05:00 +17°C° 0 mm 4 mps 758 mmHg 71%
    06:00 +17°C° 0 mm 4 mps 758 mmHg 73%
    07:00 +19°C° 0 mm 4 mps 758 mmHg 68%
    08:00 +21°C° 0 mm 4 mps 758 mmHg 63%
    09:00 +23°C° 0 mm 5 mps 757 mmHg 58%
    10:00 +23°C° 0.1 mm 5 mps 757 mmHg 58%
    11:00 +23°C° 0.1 mm 5 mps 756 mmHg 58%
    12:00 +25°C° 0.1 mm 5 mps 756 mmHg 58%
    13:00 +23°C° 0.1 mm 6 mps 755 mmHg 61%
    14:00 +23°C° 0.1 mm 6 mps 754 mmHg 63%
    15:00 +23°C° 0.1 mm 7 mps 753 mmHg 65%
    16:00 +22°C° 0.1 mm 7 mps 753 mmHg 68%
    17:00 +22°C° 0.1 mm 7 mps 752 mmHg 70%
    18:00 +21°C° 0.1 mm 6 mps 752 mmHg 72%
    19:00 +21°C° 0.1 mm 6 mps 752 mmHg 73%
    20:00 +20°C° 0.1 mm 6 mps 752 mmHg 73%
    21:00 +20°C° 0.1 mm 6 mps 752 mmHg 74%
    22:00 +20°C° 0.1 mm 5 mps 752 mmHg 75%
    23:00 +20°C° 0.1 mm 5 mps 752 mmHg 75%

    19 December, Wednesday

    Time Temperature Precipitation Wind Pressure Humidity
    00:00 +20°C° 0.1 mm 4 mps 752 mmHg 76%
    01:00 +19°C° 0.2 mm 4 mps 752 mmHg 79%
    02:00 +19°C° 0.2 mm 4 mps 751 mmHg 82%
    03:00 +18°C° 0.2 mm 4 mps 751 mmHg 86%
    04:00 +18°C° 0.1 mm 4 mps 751 mmHg 87%
    05:00 +17°C° 0.1 mm 4 mps 752 mmHg 89%
    06:00 +17°C° 0.1 mm 4 mps 752 mmHg 90%
    07:00 +17°C° 0.4 mm 4 mps 752 mmHg 90%
    08:00 +17°C° 0.4 mm 4 mps 753 mmHg 91%
    09:00 +18°C° 0.4 mm 4 mps 753 mmHg 91%
    10:00 +16°C° 0.9 mm 5 mps 753 mmHg 92%
    11:00 +15°C° 0.9 mm 5 mps 754 mmHg 93%
    12:00 +14°C° 0.9 mm 6 mps 754 mmHg 94%
    13:00 +14°C° 0.7 mm 6 mps 754 mmHg 94%
    14:00 +13°C° 0.7 mm 6 mps 754 mmHg 94%
    15:00 +13°C° 0.7 mm 6 mps 755 mmHg 94%
    16:00 +12°C° 0.7 mm 5 mps 755 mmHg 94%
    17:00 +12°C° 0.7 mm 5 mps 755 mmHg 94%
    18:00 +12°C° 0.7 mm 5 mps 755 mmHg 94%
    19:00 +11°C° 0.6 mm 4 mps 756 mmHg 94%
    20:00 +11°C° 0.6 mm 4 mps 756 mmHg 94%
    21:00 +11°C° 0.6 mm 4 mps 757 mmHg 95%
    22:00 +11°C° 0.6 mm 3 mps 757 mmHg 95%
    23:00 +10°C° 0.6 mm 3 mps 757 mmHg 94%

    20 December, Thursday

    Time Temperature Precipitation Wind Pressure Humidity
    00:00 +10°C° 0.6 mm 3 mps 757 mmHg 94%
    01:00 +10°C° 0.3 mm 3 mps 756 mmHg 94%
    02:00 +10°C° 0.3 mm 2 mps 756 mmHg 94%
    03:00 +10°C° 0.3 mm 2 mps 756 mmHg 94%
    04:00 +10°C° 0.1 mm 2 mps 756 mmHg 93%
    05:00 +11°C° 0.1 mm 1 mps 755 mmHg 92%
    06:00 +11°C° 0.1 mm 1 mps 755 mmHg 91%
    07:00 +12°C° 0 mm 1 mps 755 mmHg 87%
    08:00 +13°C° 0 mm 2 mps 755 mmHg 83%
    09:00 +14°C° 0 mm 2 mps 755 mmHg 78%
    10:00 +14°C° 0 mm 2 mps 755 mmHg 78%
    11:00 +13°C° 0 mm 3 mps 754 mmHg 77%
    12:00 +14°C° 0 mm 3 mps 754 mmHg 76%
    13:00 +14°C° 0 mm 3 mps 753 mmHg 75%
    14:00 +15°C° 0 mm 4 mps 753 mmHg 74%
    15:00 +15°C° 0 mm 4 mps 752 mmHg 74%
    16:00 +15°C° 0 mm 4 mps 752 mmHg 75%
    17:00 +15°C° 0 mm 4 mps 752 mmHg 77%
    18:00 +14°C° 0 mm 4 mps 752 mmHg 79%
    19:00 +13°C° 0 mm 4 mps 752 mmHg 83%
    20:00 +12°C° 0 mm 4 mps 752 mmHg 88%
    21:00 +10°C° 0 mm 4 mps 752 mmHg 92%
    22:00 +10°C° 0 mm 4 mps 752 mmHg 93%
    23:00 +10°C° 0 mm 4 mps 752 mmHg 93%
    Show more